timeIndex;Autorizzati;Non autorizzati;areac
2014-01-01;6754;69532;0
2014-01-02;8733;83024;0
2014-01-03;9846;94488;0
2014-01-04;8635;101830;0
2014-01-05;7292;91776;0
2014-01-06;18547;91592;0
2014-01-07;31277;83876;1
2014-01-08;33393;89664;1
2014-01-09;34337;97089;1
2014-01-10;35179;103819;1
2014-01-11;28301;129579;0
2014-01-12;25553;103636;0
2014-01-13;40632;93829;1
2014-01-14;42343;102672;1
2014-01-15;40132;100134;1
2014-01-16;41400;110027;1
2014-01-17;40067;113667;1
2014-01-18;26383;129922;0
2014-01-19;21017;96077;0
2014-01-20;35768;97447;1
2014-01-21;37131;101284;1
2014-01-22;37442;102906;1
2014-01-23;39252;106881;1
2014-01-24;43027;138886;0
2014-01-25;24723;123566;0
2014-01-26;20469;99301;0
2014-01-27;35266;95752;1
2014-01-28;37576;102896;1
2014-01-29;29043;103951;1
2014-01-30;41599;110558;1
2014-01-31;38490;112739;1
2014-02-01;24692;126130;0
2014-02-02;20015;98526;0
2014-02-03;39310;99622;1
2014-02-04;39752;100156;1
2014-02-05;42594;103904;1
2014-02-07;41937;107774;1
2014-02-08;26167;122379;0
2014-02-09;21690;101497;0
2014-02-10;39192;99912;1
2014-02-11;39024;102539;1
2014-02-12;40304;102817;1
2014-02-13;42147;109760;1
2014-02-14;39625;111474;1
2014-02-15;25516;121938;0
2014-02-16;20550;92664;0
2014-02-17;36553;96745;1
2014-02-18;39310;101417;1
2014-02-19;45493;109700;1
2014-02-20;46141;112822;1
2014-02-21;46035;110899;1
2014-02-22;34059;124827;0
2014-02-23;27279;102953;0
2014-02-24;35660;97462;1
2014-02-25;29354;104917;1
2014-02-26;31042;110672;1
2014-02-27;30329;111957;1
2014-02-28;30864;110450;1
2014-03-01;21850;119633;0
2014-03-02;17251;97401;0
2014-03-03;28815;96565;1
2014-03-04;29001;101294;1
2014-03-05;34456;130995;0
2014-03-06;29858;102608;1
2014-03-07;31599;95190;1
2014-03-08;22320;105225;0
2014-03-09;19056;91245;0
2014-03-10;33189;95689;1
2014-03-11;34700;103738;1
2014-03-12;35192;104917;1
2014-03-13;35230;108861;1
2014-03-14;34211;109520;1
2014-03-15;21766;117535;0
2014-03-16;17854;95037;0
2014-03-17;32148;99173;1
2014-03-18;34824;106285;1
2014-03-19;43352;136665;0
2014-03-20;21327;113915;1
2014-03-21;37155;110009;1
2014-03-22;26221;131334;0
2014-03-23;19722;91305;0
2014-03-24;34365;97059;1
2014-03-25;37507;105589;1
2014-03-26;39452;108399;1
2014-03-27;38908;112802;1
2014-03-28;36636;113249;1
2014-03-29;24736;126062;0
2014-03-30;19224;97874;0
2014-03-31;33532;97692;1
2014-04-01;36645;102945;1
2014-04-02;38555;105238;1
2014-04-03;39238;109622;1
2014-04-04;38187;116399;1
2014-04-05;24797;128810;0
2014-04-06;13620;80838;0
2014-04-07;41011;100208;1
2014-04-08;47157;108554;1
2014-04-09;48515;109709;1
2014-04-10;49852;115862;1
2014-04-11;49037;116487;1
2014-04-12;37456;131720;0
2014-04-13;29522;110014;0
2014-04-14;36632;96602;1
2014-04-15;39174;104241;1
2014-04-16;39917;106045;1
2014-04-17;37714;103053;1
2014-04-18;31219;88364;1
2014-04-19;12782;76296;0
2014-04-20;8307;52499;0
2014-04-21;13554;67650;0
2014-04-22;24367;77653;1
2014-04-23;27191;83812;1
2014-04-24;27355;88154;1
2014-04-25;16186;74165;0
2014-04-26;16391;91396;0
2014-04-27;15786;81381;0
2014-04-28;33208;97001;1
2014-04-29;32645;100402;1
2014-04-30;34131;107853;1
2014-05-01;20710;89129;0
2014-05-02;24628;85020;1
2014-05-03;19923;100202;0
2014-05-04;18310;88313;0
2014-05-05;35456;93290;1
2014-05-06;40062;100494;1
2014-05-07;40368;104795;1
2014-05-08;41958;110514;1
2014-05-09;40803;110451;1
2014-05-10;27503;128070;0
2014-05-11;22098;102786;0
2014-05-12;36672;94109;1
2014-05-13;39051;100497;1
2014-05-14;38025;103367;1
2014-05-15;39415;108031;1
2014-05-16;38727;109365;1
2014-05-17;19759;115668;0
2014-05-18;7850;78286;0
2014-05-19;18549;96466;1
2014-05-20;18521;103310;1
2014-05-21;20966;105934;1
2014-05-22;40218;111119;1
2014-05-23;38242;106358;1
2014-05-24;25736;114326;0
2014-05-25;22190;99079;0
2014-05-26;36551;97753;1
2014-05-27;38019;102573;1
2014-05-28;38056;106202;1
2014-05-29;40093;113835;1
2014-05-30;40925;125836;0
2014-05-31;22880;102492;0
2014-06-02;19279;79961;0
2014-06-03;37811;97122;1
2014-06-04;40136;102781;1
2014-06-05;39556;106972;1
2014-06-06;37616;102975;1
2014-06-07;24336;107745;0
2014-06-08;20116;84951;0
2014-06-09;37160;93383;1
2014-06-10;40430;98548;1
2014-06-11;20581;105491;1
2014-06-12;40795;104893;1
2014-06-13;38209;99455;1
2014-06-14;25748;106126;0
2014-06-15;19681;88210;0
2014-06-16;36203;91195;1
2014-06-17;39407;99566;1
2014-06-18;39789;98247;1
2014-06-19;39892;100344;1
2014-06-20;37854;91780;1
2014-06-21;28435;100408;0
2014-06-22;24459;80337;0
2014-06-23;41135;91590;1
2014-06-24;41949;95135;1
2014-06-25;42086;103934;1
2014-06-26;41191;104389;1
2014-06-27;37754;97635;1
2014-06-28;23837;103707;0
2014-06-29;20811;87059;0
2014-06-30;33590;87836;1
2014-07-01;35502;96294;1
2014-07-02;37228;100444;1
2014-07-03;36119;100344;1
2014-07-04;34866;93678;1
2014-07-05;21261;93119;0
2014-07-06;18577;80083;0
2014-07-07;35562;87141;1
2014-07-08;38931;94945;1
2014-07-09;38616;94451;1
2014-07-10;35709;102406;1
2014-07-11;30503;93728;1
2014-07-12;18508;93174;0
2014-07-13;15317;75169;0
2014-07-14;34695;88642;1
2014-07-15;36314;91675;1
2014-07-16;37723;94184;1
2014-07-17;37913;96180;1
2014-07-18;34578;88124;1
2014-07-19;20476;84384;0
2014-07-20;17207;71824;0
2014-07-21;33922;87619;1
2014-07-22;35814;92268;1
2014-07-23;36557;94634;1
2014-07-24;37831;101734;1
2014-07-25;33667;89523;1
2014-07-26;21106;95531;0
2014-07-27;16253;70192;0
2014-07-28;31479;82095;1
2014-07-29;31338;92399;1
2014-07-30;28833;95058;1
2014-07-31;31519;89621;1
2014-08-01;29081;83568;1
2014-08-02;18346;83428;0
2014-08-03;14346;63412;0
2014-08-18;14219;51130;0
2014-08-19;14959;56839;0
2014-08-20;14794;57384;0
2014-08-21;14685;56069;0
2014-08-22;14902;58219;0
2014-08-23;13054;54831;0
2014-08-24;12268;49524;0
2014-08-25;17108;54486;1
2014-08-26;18273;59935;1
2014-08-27;19002;61550;1
2014-08-28;20560;65866;1
2014-08-29;21570;66700;1
2014-08-30;17753;80155;0
2014-08-31;17223;72042;0
2014-09-01;27828;78906;1
2014-09-02;30469;86401;1
2014-09-03;32017;91432;1
2014-09-04;32070;95190;1
2014-09-05;32741;95782;1
2014-09-06;22463;104255;0
2014-09-07;19505;85475;0
2014-09-08;32993;91657;1
2014-09-09;36629;100584;1
2014-09-10;38604;104895;1
2014-09-11;37996;110157;1
2014-09-12;34764;106718;1
2014-09-13;22084;108434;0
2014-09-14;18546;89560;0
2014-09-15;36316;96633;1
2014-09-16;40037;109165;1
2014-09-17;43448;107160;1
2014-09-18;44861;112738;1
2014-09-19;45817;112394;1
2014-09-20;35131;124781;0
2014-09-21;29977;101048;0
2014-09-22;41075;94545;1
2014-09-23;40233;98201;1
2014-09-24;39951;101087;1
2014-09-25;40523;105570;1
2014-09-26;39832;106669;1
2014-09-27;26075;114911;0
2014-09-28;21780;91879;0
2014-09-29;36526;93579;1
2014-09-30;40656;104923;1
2014-10-01;40436;103023;1
2014-10-02;41101;103898;1
2014-10-03;39604;104454;1
2014-10-04;27158;120055;0
2014-10-05;22623;93710;0
2014-10-06;35823;97054;1
2014-10-07;40526;107542;1
2014-10-08;41229;107588;1
2014-10-09;41067;110385;1
2014-10-10;40099;110391;1
2014-10-11;25687;130965;0
2014-10-12;20792;102256;0
2014-10-13;40376;100722;1
2014-10-14;39744;102398;1
2014-10-15;39964;100675;1
2014-10-16;39208;92970;1
2014-10-17;38289;102151;1
2014-10-18;26887;124135;0
2014-10-19;21037;95011;0
2014-10-20;35552;93126;1
2014-10-21;36935;99728;1
2014-10-22;37494;103189;1
2014-10-23;37404;108258;1
2014-10-24;38814;130422;0
2014-10-25;25899;122909;0
2014-10-26;21727;101994;0
2014-10-27;35331;94381;1
2014-10-28;37848;100387;1
2014-10-29;38633;100969;1
2014-10-30;37994;105791;1
2014-10-31;36585;106416;1
2014-11-01;23227;104387;0
2014-11-02;19233;91527;0
2014-11-03;35393;94078;1
2014-11-04;39946;105456;1
2014-11-05;41537;110257;1
2014-11-06;38751;112170;1
2014-11-07;37454;112660;1
2014-11-08;25338;130379;0
2014-11-09;20669;101586;0
2014-11-10;35405;103627;1
2014-11-11;37460;110257;1
2014-11-12;40737;110792;1
2014-11-13;38845;111457;1
2014-11-14;39174;124198;1
2014-11-15;27788;126000;0
2014-11-16;17926;109681;0
2014-11-17;39015;102798;1
2014-11-18;38234;103507;1
2014-11-19;38689;104796;1
2014-11-20;40444;109887;1
2014-11-21;39410;111581;1
2014-11-22;26581;130624;0
2014-11-23;21405;103638;0
2014-11-24;36390;98554;1
2014-11-25;40138;105773;1
2014-11-26;40746;108630;1
2014-11-27;42540;117658;1
2014-11-28;41687;119016;1
2014-11-29;27148;137062;0
2014-11-30;21867;103610;0
2014-12-01;37295;102563;1
2014-12-02;39206;106538;1
2014-12-03;39986;108315;1
2014-12-04;40628;112220;1
2014-12-05;38277;108765;1
2014-12-06;23637;112435;0
2014-12-07;20827;97905;0
2014-12-08;20680;101538;0
2014-12-09;33970;105053;1
2014-12-10;37513;112818;1
2014-12-11;39397;118031;1
2014-12-12;37413;125325;1
2014-12-13;27316;138526;0
2014-12-14;21736;113564;0
2014-12-15;36399;110903;1
2014-12-16;39692;120751;1
2014-12-17;40314;125117;1
2014-12-18;39555;131926;1
2014-12-19;39277;132331;1
2014-12-20;25797;135995;0
2014-12-21;21512;118594;0
2014-12-22;34000;118056;1
2014-12-23;32113;119161;1
2014-12-24;22207;109925;0
2014-12-25;12395;74660;0
2014-12-26;12880;77813;0
2014-12-27;15747;84760;0
2014-12-28;13981;76594;0
2014-12-29;20699;90104;0
2014-12-30;20733;90923;0
2014-12-31;18229;79496;0
